YO4ISC-13 Weather Reports


time (UTC)temp
C
wind
direction
speed
KPH
gust
KPH
rain 1hr
cm
rain 24hr
cm
rain mn
cm
humidity
%
barometer
mb
20260902224001 18 310 3.2 3.2 0.00 0.00 0.00 86 1019.0
20260902223002 18 228 1.6 1.6 0.00 0.00 0.00 85 1019.0
20260902222002 18 298 0.0 0.0 0.00 0.00 0.00 85 1019.0
20260902221001 19 348 3.2 3.2 0.00 0.00 0.00 85 1019.0
20260902220002 19 4 1.6 3.2 0.00 0.00 0.00 85 1019.0
20260902215002 18 321 3.2 4.8 0.00 0.00 0.00 86 1019.0
20260902214001 19 302 3.2 3.2 0.00 0.00 0.00 86 1019.0
20260902213002 19 315 0.0 0.0 0.00 0.00 0.00 85 1018.0
20260902212002 20 309 0.0 0.0 0.00 0.00 0.00 83 1019.0
20260902211001 20 9 0.0 1.6 0.00 0.00 0.00 82 1019.0
20260902210002 20 337 3.2 4.8 0.00 0.00 0.00 83 1019.0
20260902205001 20 343 1.6 1.6 0.00 0.00 0.00 82 1018.0
20260902204001 20 330 3.2 3.2 0.00 0.00 0.00 82 1019.0
20260902203002 20 315 0.0 3.2 0.00 0.00 0.00 83 1019.0
20260902202001 20 255 1.6 1.6 0.00 0.00 0.00 82 1019.0
20260902201001 20 255 0.0 0.0 0.00 0.00 0.00 83 1019.0
20260902200002 20 55 0.0 0.0 0.00 0.00 0.00 84 1018.0
20260902195001 21 264 0.0 0.0 0.00 0.00 0.00 84 1018.0
20260902194001 21 164 0.0 0.0 0.00 0.00 0.00 84 1018.0
20260902193002 21 204 3.2 3.2 0.00 0.00 0.00 85 1018.0
20260902192002 21 194 3.2 3.2 0.00 0.00 0.00 85 1019.0
20260902191002 21 172 1.6 1.6 0.00 0.00 0.00 85 1019.0
20260902190002 21 195 0.0 0.0 0.00 0.00 0.00 83 1019.0
20260902185001 22 195 0.0 1.6 0.00 0.00 0.00 83 1019.0
20260902184002 22 203 3.2 3.2 0.00 0.00 0.00 82 1019.0
20260902183002 22 153 3.2 3.2 0.00 0.00 0.00 80 1019.0
20260902182001 22 193 3.2 3.2 0.00 0.00 0.00 80 1019.0
20260902181002 22 146 0.0 3.2 0.00 0.00 0.00 78 1019.0
20260902180003 22 136 3.2 3.2 0.00 0.00 0.00 76 1019.0
20260902175001 22 136 1.6 3.2 0.00 0.00 0.00 74 1019.0
20260902174002 22 162 3.2 3.2 0.00 0.00 0.00 76 1018.0
20260902173001 22 135 3.2 3.2 0.00 0.00 0.00 79 1018.0
20260902172001 22 137 0.0 3.2 0.00 0.00 0.00 80 1018.0
20260902171002 22 133 3.2 3.2 0.00 0.00 0.00 78 1018.0
20260902170001 23 129 0.0 3.2 0.00 0.00 0.00 77 1018.0
20260902165001 23 141 3.2 3.2 0.00 0.00 0.00 76 1018.0
20260902164002 23 150 3.2 4.8 0.00 0.00 0.00 75 1018.0
20260902163001 24 156 3.2 3.2 0.00 0.00 0.00 73 1018.0
20260902162002 24 164 3.2 3.2 0.00 0.00 0.00 72 1018.0
20260902161002 25 182 6.4 8.0 0.00 0.00 0.00 71 1018.0
20260902160001 25 215 3.2 3.2 0.00 0.00 0.00 71 1018.0
20260902155002 25 186 3.2 3.2 0.00 0.00 0.00 70 1018.0
20260902154002 25 170 4.8 6.4 0.00 0.00 0.00 71 1018.0
20260902153001 25 173 9.7 11.3 0.00 0.00 0.00 70 1018.0
20260902152002 25 183 8.0 11.3 0.00 0.00 0.00 68 1018.0
20260902151002 25 175 8.0 9.7 0.00 0.00 0.00 70 1018.0
20260902150001 26 173 8.0 8.0 0.00 0.00 0.00 68 1018.0
20260902145002 26 173 12.9 14.5 0.00 0.00 0.00 68 1018.0
20260902144001 25 153 3.2 9.7 0.00 0.00 0.00 66 1018.0
20260902143001 26 164 9.7 16.1 0.00 0.00 0.00 68 1018.0
20260902142002 26 160 11.3 14.5 0.00 0.00 0.00 63 1019.0
20260902141002 26 152 8.0 9.7 0.00 0.00 0.00 65 1019.0
20260902140001 26 157 9.7 9.7 0.00 0.00 0.00 66 1018.0
20260902135002 26 149 12.9 16.1 0.00 0.00 0.00 64 1019.0
20260902134001 26 142 9.7 9.7 0.00 0.00 0.00 66 1019.0
20260902133001 26 159 9.7 12.9 0.00 0.00 0.00 66 1019.0
20260902132002 26 141 8.0 14.5 0.00 0.00 0.00 65 1019.0
20260902131001 26 152 8.0 9.7 0.00 0.00 0.00 62 1019.0
20260902130001 26 131 4.8 9.7 0.00 0.00 0.00 63 1019.0
20260902125002 26 133 6.4 11.3 0.00 0.00 0.00 63 1019.0
20260902124001 26 128 11.3 14.5 0.00 0.00 0.00 63 1019.0
20260902123001 26 140 3.2 8.0 0.00 0.00 0.00 63 1019.0
20260902122002 26 137 14.5 17.7 0.00 0.00 0.00 61 1019.0
20260902121001 26 141 8.0 11.3 0.00 0.00 0.00 62 1019.0
20260902120002 26 158 8.0 11.3 0.00 0.00 0.00 63 1019.0
20260902115002 26 163 8.0 16.1 0.00 0.00 0.00 65 1019.0
20260902114001 26 132 12.9 14.5 0.00 0.00 0.00 66 1019.0
20260902113002 26 132 4.8 8.0 0.00 0.00 0.00 67 1020.0
20260902112002 26 116 3.2 9.7 0.00 0.00 0.00 66 1020.0
20260902111001 26 141 3.2 8.0 0.00 0.00 0.00 64 1020.0
20260902110002 26 141 12.9 12.9 0.00 0.00 0.00 64 1020.0
20260902105002 26 145 6.4 6.4 0.00 0.00 0.00 65 1020.0
20260902104001 26 117 9.7 11.3 0.00 0.00 0.00 62 1020.0
20260902103002 26 123 9.7 9.7 0.00 0.00 0.00 63 1020.0
20260902102001 26 148 6.4 9.7 0.00 0.00 0.00 61 1020.0
20260902101001 26 78 6.4 8.0 0.00 0.00 0.00 63 1020.0
20260902100002 26 143 3.2 6.4 0.00 0.00 0.00 65 1020.0
20260902095001 25 163 9.7 9.7 0.00 0.00 0.00 67 1020.0
20260902094001 25 154 8.0 9.7 0.00 0.00 0.00 67 1020.0
20260902093002 26 102 3.2 6.4 0.00 0.00 0.00 64 1020.0
20260902092001 26 116 9.7 9.7 0.00 0.00 0.00 67 1020.0
20260902091001 26 105 11.3 16.1 0.00 0.00 0.00 66 1020.0
20260902090002 26 96 4.8 9.7 0.00 0.00 0.00 62 1020.0
20260902085001 26 82 11.3 12.9 0.00 0.00 0.00 63 1021.0
20260902084001 25 86 8.0 9.7 0.00 0.00 0.00 62 1020.0
20260902083002 25 127 8.0 9.7 0.00 0.00 0.00 64 1020.0
20260902082001 25 45 8.0 9.7 0.00 0.00 0.00 61 1020.0
20260902081001 25 102 3.2 6.4 0.00 0.00 0.00 63 1020.0
20260902080002 25 91 3.2 4.8 0.00 0.00 0.00 66 1020.0
20260902075001 25 74 6.4 8.0 0.00 0.00 0.00 66 1020.0
20260902074002 25 42 4.8 6.4 0.00 0.00 0.00 68 1020.0
20260902073002 25 65 4.8 9.7 0.00 0.00 0.00 68 1020.0
20260902072001 25 68 4.8 9.7 0.00 0.00 0.00 65 1020.0
20260902071002 25 69 4.8 6.4 0.00 0.00 0.00 64 1020.0
20260902070002 24 74 4.8 4.8 0.00 0.00 0.00 65 1020.0
20260902065001 24 70 4.8 6.4 0.00 0.00 0.00 67 1020.0
20260902064002 24 91 8.0 12.9 0.00 0.00 0.00 69 1020.0
20260902063002 24 51 3.2 3.2 0.00 0.00 0.00 73 1020.0
20260902062001 23 29 3.2 3.2 0.00 0.00 0.00 74 1020.0
20260902061002 23 73 1.6 3.2 0.00 0.00 0.00 76 1020.0
20260902060001 23 45 4.8 8.0 0.00 0.00 0.00 79 1020.0
20260902055001 22 280 3.2 4.8 0.00 0.00 0.00 79 1020.0
20260902054002 21 309 3.2 4.8 0.00 0.00 0.00 79 1020.0
20260902053001 21 288 3.2 3.2 0.00 0.00 0.00 82 1020.0
20260902052001 20 243 3.2 4.8 0.00 0.00 0.00 85 1020.0
20260902051002 19 174 0.0 1.6 0.00 0.00 0.00 87 1020.0
20260902050002 18 272 3.2 3.2 0.00 0.00 0.00 89 1020.0
20260902045001 17 281 3.2 4.8 0.00 0.00 0.00 90 1020.0
20260902044002 17 286 3.2 4.8 0.00 0.00 0.00 90 1020.0
20260902043001 17 135 1.6 3.2 0.00 0.00 0.00 92 1020.0
20260902042001 16 306 0.0 3.2 0.00 0.00 0.00 93 1019.0
20260902041002 16 323 1.6 1.6 0.00 0.00 0.00 94 1019.0
20260902040001 15 291 0.0 0.0 0.00 0.00 0.00 94 1019.0
20260902035002 15 275 3.2 3.2 0.00 0.00 0.00 94 1019.0
20260902034002 15 187 1.6 1.6 0.00 0.00 0.00 94 1019.0
20260902033001 16 277 1.6 3.2 0.00 0.00 0.00 94 1019.0
20260902032002 16 63 0.0 0.0 0.00 0.00 0.00 94 1019.0
20260902031002 16 1 0.0 1.6 0.00 0.00 0.00 95 1019.0
20260902030001 16 271 1.6 3.2 0.00 0.00 0.00 95 1019.0
20260902025002 16 352 1.6 3.2 0.00 0.00 0.00 95 1019.0
20260902024001 16 305 1.6 3.2 0.00 0.00 0.00 94 1019.0
20260902023001 16 292 6.4 6.4 0.00 0.00 0.00 94 1019.0
20260902022002 16 327 3.2 3.2 0.00 0.00 0.00 94 1019.0
20260902021001 16 22 3.2 3.2 0.00 0.00 0.00 95 1019.0
20260902020001 16 348 3.2 4.8 0.00 0.00 0.00 95 1019.0
20260902015002 16 339 3.2 3.2 0.00 0.00 0.00 95 1019.0
20260902014001 16 333 1.6 3.2 0.00 0.00 0.00 95 1019.0
20260902013001 16 322 4.8 6.4 0.00 0.00 0.00 95 1019.0
20260902012002 16 251 3.2 3.2 0.00 0.00 0.00 95 1019.0
20260902011001 16 312 3.2 3.2 0.00 0.00 0.00 95 1019.0
20260902010001 16 230 1.6 3.2 0.00 0.00 0.00 94 1019.0
20260902005002 16 29 0.0 1.6 0.00 0.00 0.00 93 1019.0
20260902004001 16 155 0.0 1.6 0.00 0.00 0.00 92 1019.0
20260902003002 17 349 1.6 1.6 0.00 0.00 0.00 94 1019.0
20260902002001 17 287 3.2 3.2 0.00 0.00 0.00 93 1019.0
20260902001002 17 352 3.2 3.2 0.00 0.00 0.00 93 1019.0
20260902000001 17 302 0.0 0.0 0.00 0.00 0.00 93 1019.0
20260901235002 17 359 0.0 3.2 0.00 0.00 0.00 93 1019.0
20260901234002 17 306 0.0 1.6 0.00 0.00 0.00 93 1019.0
20260901233001 17 300 0.0 0.0 0.00 0.00 0.00 92 1019.0
20260901232002 17 301 1.6 3.2 0.00 0.00 0.00 92 1019.0
20260901231002 17 309 0.0 0.0 0.00 0.00 0.00 91 1019.0
20260901230001 18 37 0.0 1.6 0.00 0.00 0.00 93 1019.0
20260901225002 18 315 0.0 0.0 0.00 0.00 0.00 92 1019.0